BEIJING 1 1 28890U 05043A 26121.93318877 .00000233 00000+0 54442-4 0 9997 2 28890 98.2835 254.9064 0015869 68.1151 292.1736 14.63504271 93886 HUANJING 1A (HJ-1A) 1 33320U 08041A 26121.90930083 .00001183 00000+0 14840-3 0 9990 2 33320 97.6664 109.5456 0017646 293.0997 66.8358 14.83880973951545 HUANJING 1B (HJ-1B) 1 33321U 08041B 26121.99284211 .00001203 00000+0 15189-3 0 9995 2 33321 97.6505 112.9353 0035952 337.5617 22.4023 14.83234692951567 YAOGAN-4 1 33446U 08061A 26121.81855840 .00001001 00000+0 12928-3 0 9992 2 33446 97.9293 55.6792 0013290 217.3981 142.6308 14.83112348938796 DEIMOS-1 1 35681U 09041A 26121.92756736 .00000411 00000+0 67876-4 0 9997 2 35681 97.7342 281.1748 0001696 39.1455 320.9877 14.75187678900062 UK-DMC 2 1 35683U 09041C 26121.92370270 .00000753 00000+0 11665-3 0 9997 2 35683 97.8758 258.0415 0001731 84.0699 276.0708 14.75954792899744 DMC3-FM1 1 40715U 15032A 26121.93636213 .00001077 00000+0 13009-3 0 9993 2 40715 97.6529 348.9122 0004857 189.8380 170.2741 14.85688401583044 DMC3-FM2 1 40716U 15032B 26121.89122061 .00000115 00000+0 19185-4 0 9994 2 40716 97.6584 350.4103 0005187 198.7773 161.3253 14.85688948583039 DMC3-FM3 1 40717U 15032C 26121.91431134 .00000410 00000+0 53197-4 0 9991 2 40717 97.6635 352.1557 0004517 196.5361 163.5708 14.85688070583040